Regional Weather Roundup
Issued by NWS

Home | Current Version | Previous Version | Graphics & Text | Print | Product List | Glossary On
Versions: 1 2 3 4 5 6 7 8 9 10 11 12 13 14 15 16 17 18 19 20 21 22 23 24 25 26 27 28 29 30 31 32 33 34 35 36 37 38 39 40 41 42 43 44 45 46 47 48 49 50
855
ASUS44 KMEG 131900
RWRTN
TENNESSEE HOURLY STATE WEATHER ROUNDUP
NATIONAL WEATHER SERVICE MEMPHIS TN
100 PM CST SAT FEB 13 2016

TNZ002-004-019-021-049-052-054-088>092-132000-
WEST TENNESSEE

CITY           SKY/WX    TMP DP  RH WIND       PRES   REMARKS
MEMPHIS INTL   MOSUNNY   37   6  27 NE12      30.52F WCI  29
NWS MEMPHIS      N/A     36 N/A N/A MISG        N/A
JACKSON        SUNNY     32   7  35 NE10      30.54F WCI  24
DYERSBURG      SUNNY     28   5  37 NE10      30.58F WCI  19
UNION CITY     SUNNY     25   5  42 NE7       30.56S WCI  17
PARIS          SUNNY     25   3  39 NE12      30.54F WCI  14
LEXINGTON      SUNNY     30   0  27 NE6       30.50F WCI  24
$$

TNZ008-025-027-028-033-062-065-066-132000-
NORTH MIDDLE TENNESSEE

CITY           SKY/WX    TMP DP  RH WIND       PRES   REMARKS
NASHVILLE      MOSUNNY   30   1  29 N5        30.52F WCI  25
CLARKSVILLE    SUNNY     27   3  35 N8        30.55F WCI  19
COOKEVILLE     SUNNY     28   9  43 N8        30.44F WCI  20
CROSSVILLE     SUNNY     26   3  37 NW8       30.38F WCI  18
$$

TNZ061-075-076-078-094-096-097-132000-
SOUTH MIDDLE TENNESSEE

CITY           SKY/WX    TMP DP  RH WIND       PRES   REMARKS
TULLAHOMA      SUNNY     28   0  29 N9        30.44F WCI  20
WINCHESTER     SUNNY     30   3  31 N12       30.44F WCI  21
MCMINNVILLE    SUNNY     28   7  40 N10       30.45F WCI  19
COLUMBIA       SUNNY     30   5  34 N6        30.48F WCI  24
SHELBYVILLE    SUNNY     30   9  40 N13       30.49F WCI  20
$$

TNZ017-018-042-046-047-132000-
NORTHEAST TENNESSEE

CITY           SKY/WX    TMP DP  RH WIND       PRES   REMARKS
TRI CITIES     MOSUNNY   25   7  46 VRB6      30.35F WCI  18
$$

TNZ012-013-036-069-073-074-132000-
CENTRAL EAST TENNESSEE

CITY           SKY/WX    TMP DP  RH WIND       PRES   REMARKS
KNOXVILLE      MOSUNNY   30   9  41 NE9       30.41F WCI  22
OAK RIDGE      SUNNY     32   5  32 VRB5      30.43F WCI  27
GATLINBURG     CLEAR     27   9  46 VRB6      30.40F WCI  20
$$

TNZ083-085-099-132000-
SOUTHEAST TENNESSEE

CITY           SKY/WX    TMP DP  RH WIND       PRES   REMARKS
CHATTANOOGA    SUNNY     37   2  22 NE8       30.43F WCI  31
$$

SKY/WX REPORTED AS FAIR MEANS FEW OR NO CLOUDS BELOW
12 THOUSAND FEET.





USA.gov is the U.S. government's official web portal to all federal, state and local government web resources and services.